Home   Weather   Corner Brook   Past weeks

Flag for Canada Past Weather in Corner Brook, Newfoundland and Labrador, Canada — Yesterday and Last 2 Weeks

46 °F


Feels Like: 44 °F
Forecast: 46 / 56 °F
Wind: 5 mph from Northeast

Location: Deer Lake

Current Time: Oct 22, 2016 at 9:21:48 AM

Latest Report: Oct 22, 2016 at 8:30 AM

Visibility: 15 mi

Pressure: 29.98 "Hg

Humidity: 100%

Dew Point: 46 °F

Location of Corner BrookLocation

Past Weather in Corner Brook — Graph


Corner Brook Temperature Yesterday

Maximum temperature yesterday: 43 °F (at 3:30 PM)
Minimum temperature yesterday: 25 °F (at 6:30 AM)
Average temperature yesterday: 35 °F

High & Low Weather Summary for the Past Weeks

High68 °F (Oct 7, 12:30 PM)100% (Oct 8, 4:30 AM)30.46 "Hg (Oct 8, 4:30 AM)
Low25 °F (Oct 16, 1:30 AM)26% (Oct 13, 4:30 PM)29.51 "Hg (Oct 19, 2:30 PM)
Average44 °F82%30.06 "Hg
* Reported Oct 7 7:30 AM — Oct 22 8:23 AM, Corner Brook, Weather by CustomWeather, © 2016

Note: Actual official high and low records may vary slightly from our data, if they occured in-between our weather recording intervals... More about our weather records


Corner Brook Weather History for the Previous 24 Hours

Scroll right to see more
Time TempWeatherWind HumidityBarometerVisibility
8:23 AM
Sat, Oct 22
46 °FOvercast.3 mph100%29.99 "Hg15 mi
7:30 AM46 °FSprinkles. More clouds than sun.2 mph93%30.00 "Hg12 mi
6:30 AM46 °FSprinkles. Mostly cloudy.3 mph93%30.03 "Hg12 mi
5:30 AM45 °FSprinkles. Overcast.No wind100%30.02 "Hg12 mi
4:30 AM45 °FSprinkles. Mostly cloudy.8 mph100%30.03 "Hg12 mi
3:30 AM45 °FSprinkles. Overcast.5 mph100%30.05 "Hg10 mi
2:30 AM45 °FSprinkles. Overcast.6 mph100%30.07 "Hg10 mi
1:30 AM43 °FSprinkles. Overcast.6 mph100%30.09 "Hg10 mi
12:30 AM43 °FSprinkles. Mostly cloudy.6 mph100%30.13 "Hg8 mi
11:30 PM
Fri, Oct 21
41 °FSprinkles. Mostly cloudy.5 mph100%30.17 "Hg8 mi
10:30 PM41 °FSprinkles. Mostly cloudy.5 mph93%30.20 "Hg8 mi
9:30 PM41 °FSprinkles. Mostly cloudy.6 mph93%30.23 "Hg8 mi
8:30 PM41 °FSprinkles. Mostly cloudy.6 mph93%30.24 "Hg8 mi
7:30 PM41 °FSprinkles. Mostly cloudy.2 mph93%30.25 "Hg8 mi
6:30 PM41 °FSprinkles. Mostly cloudy.6 mph93%30.27 "Hg8 mi
5:30 PM41 °FSprinkles. Overcast.3 mph93%30.30 "Hg12 mi
4:30 PM41 °FSprinkles. Overcast.3 mph93%30.31 "Hg12 mi
3:30 PM43 °FOvercast.6 mph81%30.33 "Hg15 mi
2:30 PM41 °FOvercast.3 mph81%30.35 "Hg15 mi
1:30 PM41 °FOvercast.2 mph76%30.37 "Hg15 mi
12:30 PM39 °FMostly cloudy.6 mph81%30.39 "Hg15 mi
11:30 AM36 °FMore clouds than sun.5 mph93%30.41 "Hg15 mi
10:30 AM32 °FMore clouds than sun.3 mph100%30.44 "Hg15 mi
9:30 AM30 °FMore clouds than sun.2 mph100%30.45 "Hg15 mi
Weather by CustomWeather, © 2016

See weather overviewHow to use our weather pages